Theta_e
320 320 320 319 319 319 319 319 320 320 320 320 320 320 320 321 321 321 321 320 320 320 320 320 320 320 320 320 321 322 322 318 317 318 316 321 330 340 348 351 352 351 346 333 319 315 313 318 318 322 320 320 318 324 339 339 341 333 322 320 317 321 322 327 325 329 329 326 327 328 331 329 324 330 334 336 330 329 330 326 329 332 332 333 338 345 345 347
320 320 320 319 319 319 319 320 320 320 320 320 319 320 320 320 320 320 320 320 320 320 320 320 320 320 320 320 321 322 320 317 317 317 317 334 347 348 352 354 353 351 348 317 311 313 314 315 319 321 318 314 321 317 339 334 340 323 320 318 314 324 330 333 335 333 328 326 330 329 329 329 328 330 331 325 325 327 325 324 327 327 329 332 341 343 344 344
321 320 320 320 320 320 320 320 320 319 319 319 319 319 319 319 320 320 320 320 319 319 320 320 320 320 320 320 322 322 319 318 319 319 326 345 346 351 354 356 352 349 320 309 311 313 314 317 319 321 316 314 314 319 335 335 335 328 320 314 318 329 333 336 335 330 334 333 330 329 330 330 331 333 338 327 324 326 321 321 324 325 325 329 338 341 341 342
321 320 320 320 320 320 320 320 319 319 319 319 319 319 319 320 319 319 319 319 319 319 320 320 320 320 320 322 322 320 317 319 319 321 321 352 350 352 349 354 350 347 331 322 319 318 318 318 318 319 314 310 310 329 327 333 327 327 324 318 322 331 326 332 335 334 334 335 331 329 329 330 334 334 336 330 322 322 323 326 325 324 326 329 333 338 340 340
321 320 320 320 320 320 320 320 319 319 319 319 319 319 319 319 319 318 318 318 319 320 320 320 320 320 321 322 321 319 317 307 310 322 327 351 350 352 350 349 350 339 327 319 319 317 316 315 316 318 311 303 309 324 327 333 334 331 325 330 331 331 329 333 333 333 335 337 332 329 326 329 337 338 332 331 319 319 323 327 328 328 330 330 330 333 338 339
320 320 320 320 319 319 320 319 319 319 319 319 319 319 319 318 318 318 318 318 319 320 320 321 321 321 322 322 319 316 313 298 316 318 349 348 350 352 349 349 350 339 324 324 323 322 319 318 316 308 303 305 306 307 325 332 336 322 329 332 334 334 331 336 335 335 337 331 329 330 334 337 333 331 335 334 326 327 331 330 330 331 332 332 332 332 333 337
319 320 320 319 319 319 319 319 319 319 319 319 319 319 318 317 318 318 318 318 319 319 321 321 321 322 321 322 318 317 314 312 319 321 350 354 351 351 347 353 349 322 320 317 317 316 317 313 311 306 304 303 305 315 329 332 336 328 322 331 332 335 332 335 333 334 339 333 330 336 344 334 333 325 335 333 332 331 331 332 331 332 333 333 331 332 331 337
319 319 319 319 319 319 319 319 319 319 319 319 319 318 317 318 317 317 318 318 319 320 321 321 321 322 322 319 319 313 316 315 323 337 353 353 350 346 350 337 332 316 315 314 313 312 311 307 304 308 305 303 314 330 333 330 332 327 326 332 331 334 334 335 334 335 336 335 336 338 333 331 333 331 336 333 331 330 330 332 332 332 332 332 331 331 332 337
318 318 318 318 318 318 319 318 318 318 318 318 318 317 317 317 317 318 318 318 319 320 321 322 322 322 323 318 317 313 311 323 324 332 343 332 334 337 327 315 318 313 313 313 313 312 311 305 306 308 301 303 315 331 332 330 326 334 330 332 332 331 333 333 332 333 335 337 338 331 329 334 336 339 333 337 337 330 331 331 331 331 330 330 331 331 333 336
318 318 318 317 318 318 318 318 318 318 318 318 318 317 317 317 317 318 319 319 319 320 322 323 323 323 318 318 318 308 319 324 324 329 329 323 325 322 321 316 316 314 313 311 311 311 308 306 308 308 308 307 315 329 333 332 327 336 332 332 330 331 331 333 330 332 334 337 336 328 330 333 340 335 318 336 333 331 330 329 330 329 329 330 331 331 336 337
317 317 317 317 317 317 317 317 318 318 318 318 317 316 317 317 318 318 319 319 320 321 323 324 324 321 317 320 310 306 320 321 320 320 324 322 318 315 315 315 315 313 312 311 310 310 309 309 310 309 308 305 319 329 333 333 337 334 332 329 328 329 331 332 330 329 331 331 335 333 329 336 339 334 324 331 331 331 328 328 328 328 329 330 330 331 335 336
317 317 317 317 316 317 317 317 317 317 317 317 316 317 317 318 318 318 318 319 320 322 324 324 323 319 318 318 312 312 321 320 321 318 319 322 316 317 319 317 317 316 313 311 310 312 312 311 310 307 301 309 310 333 332 338 334 332 331 324 327 329 326 330 329 328 331 328 335 335 328 324 331 327 334 338 342 331 328 327 327 328 329 329 332 333 334 334
317 317 317 316 316 316 317 317 317 317 317 316 316 317 317 317 318 318 319 319 321 323 326 325 323 319 319 310 318 326 330 318 320 319 319 320 320 319 320 320 318 318 316 312 311 313 313 311 310 305 308 307 306 309 334 339 335 335 331 325 323 321 320 328 331 330 329 331 335 336 311 314 323 331 338 340 337 330 327 326 327 328 329 331 333 333 334 335
317 317 316 316 316 316 317 317 317 317 316 316 316 316 316 317 318 318 319 319 321 323 326 326 322 319 319 312 322 324 325 318 321 318 316 319 316 315 318 318 318 316 314 313 312 312 312 310 310 307 309 305 305 338 334 331 333 322 327 324 315 312 312 327 329 331 327 335 336 333 312 315 322 330 338 340 339 327 324 325 327 328 329 331 332 333 333 335
316 316 316 316 316 317 317 317 317 316 316 316 315 315 316 316 317 319 321 321 322 325 326 326 321 318 316 320 330 331 354 316 315 316 316 315 314 313 315 316 314 315 313 313 313 313 313 310 308 306 302 310 308 308 318 323 324 325 312 310 315 311 313 326 332 331 322 331 335 328 310 313 320 329 340 340 337 333 330 325 326 328 329 331 332 333 333 334
317 316 317 316 316 317 317 317 316 316 316 315 314 314 316 317 319 321 322 322 325 327 325 321 319 319 317 312 320 333 318 313 312 315 315 317 316 313 315 315 314 314 313 310 312 312 310 310 305 302 304 306 305 300 310 314 316 318 309 308 310 313 314 320 328 332 333 331 333 328 311 318 320 328 338 341 337 334 330 329 327 328 330 331 332 332 333 334
316 317 316 316 316 316 317 316 316 316 315 314 314 314 317 319 320 322 323 324 324 326 323 317 322 321 309 319 322 315 312 314 316 317 316 317 314 314 315 312 309 309 310 310 310 311 307 305 308 307 308 301 302 304 300 305 307 310 312 309 314 312 315 312 325 331 331 328 322 328 318 320 324 328 333 339 336 333 330 332 331 328 329 331 332 332 332 333
317 316 316 316 316 317 316 316 316 315 314 314 313 314 313 319 320 322 323 324 323 326 321 323 319 313 309 321 313 311 316 316 313 315 314 313 314 315 312 309 308 307 307 304 306 304 304 299 304 296 299 301 302 299 296 294 307 305 307 309 312 317 319 316 318 325 327 327 322 323 320 320 324 328 331 337 338 334 333 332 334 332 331 331 331 332 332 333
317 316 316 316 316 316 316 316 315 314 314 314 315 318 318 319 318 318 321 321 314 309 306 312 309 300 299 312 320 315 312 313 314 312 310 313 315 313 313 317 310 303 301 299 297 301 302 299 301 298 295 295 298 300 299 300 311 310 310 311 314 313 314 315 321 328 327 321 319 320 317 319 322 327 329 334 338 334 333 334 332 333 329 330 331 332 332 333
317 316 316 315 315 315 316 315 314 313 313 310 309 313 314 307 307 313 321 320 316 310 309 310 314 315 316 313 317 316 316 315 309 310 312 314 312 310 310 312 309 304 299 294 297 298 302 295 294 294 297 299 302 303 304 305 312 315 313 314 314 315 317 322 324 328 328 320 318 320 319 319 322 324 328 332 335 334 333 331 332 332 331 329 330 331 332 333
316 316 315 315 314 315 315 314 313 312 312 310 308 307 303 304 302 301 307 310 314 316 314 313 317 315 312 312 313 311 308 309 311 308 310 316 311 308 304 308 304 298 297 298 297 300 303 295 295 298 301 303 304 305 305 306 309 314 312 313 312 316 312 320 321 328 328 319 316 319 319 319 322 324 326 332 332 330 331 331 331 332 332 329 330 331 332 333
316 316 315 314 314 314 314 313 313 312 311 307 312 305 306 307 311 312 310 305 311 313 315 316 317 315 319 318 314 314 311 309 309 309 312 311 308 304 303 304 299 296 299 299 299 298 295 293 298 301 303 304 304 305 306 305 312 311 309 312 312 312 319 322 325 328 328 322 312 319 316 316 319 322 325 331 330 329 332 332 332 332 331 329 330 331 332 332
316 316 315 314 314 313 312 312 311 309 310 313 311 313 312 315 314 314 314 307 306 313 312 311 310 312 314 317 314 313 308 306 304 307 307 310 307 306 304 301 298 299 300 299 295 295 295 295 300 303 303 303 303 304 303 302 301 305 311 310 308 315 313 307 318 325 326 321 314 317 316 314 318 323 326 328 331 331 332 334 333 334 333 330 330 331 332 332
316 316 315 314 314 313 312 311 309 310 311 311 308 308 313 314 312 313 311 305 303 309 311 312 312 311 310 308 313 312 308 308 306 305 315 309 304 306 305 302 299 299 297 298 297 295 295 300 304 303 303 303 303 301 300 298 297 300 313 312 311 315 314 313 315 323 325 326 323 317 312 310 313 316 319 325 329 328 330 334 334 336 339 336 335 333 333 332
316 316 315 314 313 312 310 310 309 312 315 312 311 314 314 314 316 314 310 303 302 305 314 313 313 311 310 315 315 309 309 311 308 310 312 309 307 306 303 307 302 298 300 300 299 297 298 303 305 302 302 302 299 296 299 300 294 294 304 315 316 317 316 317 320 320 314 310 318 316 299 300 309 315 317 319 323 324 328 331 332 333 335 336 332 331 333 334
315 315 315 314 314 310 310 309 314 312 315 311 310 314 317 316 315 315 307 298 293 300 311 303 312 306 317 308 313 311 308 304 309 311 313 311 316 307 308 300 303 296 298 299 297 295 298 302 302 300 299 298 298 299 300 299 293 295 295 310 318 319 318 319 319 314 303 302 313 318 300 294 303 310 314 317 320 322 325 328 331 333 333 335 332 330 332 334
315 314 314 314 313 310 308 306 311 315 308 308 314 317 320 320 315 313 305 297 293 305 302 308 307 306 312 310 310 307 294 298 311 313 314 322 309 313 302 298 302 303 305 303 295 294 301 301 300 301 301 302 296 296 297 299 292 292 296 307 319 318 319 319 319 314 306 314 316 317 304 298 298 304 313 318 319 320 322 325 329 331 332 334 334 332 332 334
315 314 312 312 311 309 307 308 311 313 312 312 317 319 320 319 313 310 302 291 291 308 303 304 309 313 311 310 309 302 302 307 303 307 311 314 312 310 304 301 301 301 304 298 290 294 300 298 299 300 298 295 293 296 297 300 294 294 299 304 316 319 320 319 317 311 308 308 302 309 312 300 299 304 316 318 315 316 319 323 326 330 331 333 335 334 332 334
314 313 312 311 310 310 310 308 312 311 316 318 319 320 322 316 308 301 294 288 304 303 313 304 314 309 307 307 306 306 307 310 301 306 312 312 313 308 301 303 304 303 304 300 293 297 304 302 301 299 296 294 296 297 298 300 297 299 302 301 308 315 321 319 314 306 305 296 295 304 309 298 295 303 311 316 313 314 318 322 326 330 331 332 334 336 333 334
313 313 311 310 309 310 308 309 309 316 318 319 319 319 318 308 302 296 293 288 307 296 306 305 304 301 304 301 301 305 302 306 308 310 309 305 308 310 307 308 308 303 300 303 300 299 301 317 312 303 298 298 299 300 300 299 298 303 299 296 295 297 311 309 302 298 294 291 290 303 310 303 293 299 311 312 313 317 319 322 327 330 332 333 334 336 334 333
312 311 310 310 305 313 311 306 311 316 318 317 317 316 307 302 297 289 288 295 306 301 305 302 301 305 301 299 296 302 303 304 305 307 303 309 304 307 306 302 304 298 295 296 298 302 303 304 304 304 307 307 301 302 302 303 303 302 300 293 291 292 294 292 296 296 291 286 293 304 311 306 293 298 308 319 322 323 322 322 325 328 331 332 333 335 335 333
309 309 310 308 310 313 308 307 311 315 315 316 318 308 300 293 294 288 290 308 296 299 298 297 302 301 301 302 300 299 299 302 303 303 300 299 299 298 298 295 298 294 291 292 294 299 299 298 301 305 313 304 303 298 296 298 297 297 295 293 289 284 288 284 289 289 287 286 298 309 308 303 299 302 311 316 320 323 325 326 327 328 330 332 334 335 335 333
308 308 309 310 311 308 310 314 315 314 315 318 310 302 295 290 287 292 294 299 295 300 297 303 300 301 301 299 297 301 303 297 302 303 303 302 299 300 302 302 301 296 291 294 294 293 295 302 302 303 304 308 302 295 293 293 295 295 294 292 286 284 284 281 284 288 291 302 309 308 310 300 303 309 314 317 321 325 326 328 330 330 331 332 334 335 335 332
308 308 307 312 310 312 314 317 316 316 317 317 301 300 296 289 290 312 298 298 299 307 306 301 301 301 300 294 297 301 296 300 301 300 302 299 298 296 299 302 303 301 299 295 293 294 288 289 296 301 297 304 302 297 296 296 298 300 300 296 291 290 289 285 287 285 289 293 302 310 302 297 298 305 316 320 323 326 328 329 330 331 333 333 335 335 335 331
307 308 309 312 313 314 313 316 317 320 317 304 299 295 290 288 294 295 297 299 303 305 304 303 300 300 296 299 300 302 300 297 302 300 299 297 294 295 295 298 303 302 299 291 298 297 296 291 297 304 302 304 304 305 304 301 299 301 301 302 299 297 297 290 290 290 293 296 299 300 298 303 304 313 323 323 324 325 327 327 330 329 331 332 332 333 334 332
308 312 316 316 316 319 315 316 316 317 310 300 295 291 290 295 293 299 298 305 305 301 302 300 299 296 293 293 298 303 303 299 300 300 298 297 296 297 300 301 300 300 294 292 297 292 294 293 303 304 306 302 302 307 307 304 293 299 300 297 299 303 302 296 300 302 299 291 292 301 303 306 311 313 320 319 322 323 325 326 328 329 331 330 331 332 333 333
309 313 314 319 323 324 318 318 318 315 305 299 294 290 295 299 302 302 308 303 303 304 300 294 294 295 293 292 294 299 300 302 300 298 293 299 295 300 302 303 305 303 302 296 295 299 292 292 298 303 301 305 307 308 308 307 304 300 297 299 306 308 305 298 291 291 290 288 290 301 298 299 299 297 316 317 317 320 321 325 328 327 330 329 330 331 332 333
308 311 316 318 322 323 321 321 319 311 301 297 293 308 307 300 306 305 305 304 305 304 298 297 296 299 296 295 292 296 299 297 295 298 293 297 294 303 301 300 305 305 304 300 294 298 295 289 293 300 303 307 310 307 306 309 309 303 301 310 300 295 292 297 295 288 288 286 288 294 301 300 300 302 313 313 316 318 320 322 324 326 328 329 330 332 333 334
308 312 311 319 325 324 323 322 313 305 297 294 291 295 302 302 305 303 305 305 305 302 296 298 296 299 298 293 297 298 299 294 297 295 294 297 295 301 302 302 303 303 303 301 295 296 297 289 291 298 300 302 302 301 295 301 307 308 308 304 306 301 297 294 297 295 292 288 289 289 296 294 306 309 315 314 317 319 321 321 322 324 325 327 330 332 332 332
311 309 305 316 324 324 323 315 305 299 295 290 290 295 300 298 301 303 304 303 301 300 299 299 303 297 298 299 299 295 298 298 296 295 296 297 297 304 302 305 302 303 303 303 300 301 296 295 289 294 300 300 294 298 298 300 299 300 300 299 302 303 306 302 302 297 292 289 288 288 287 295 304 316 317 318 319 321 322 321 322 325 327 327 328 330 332 332
311 309 310 318 321 322 315 306 297 296 294 294 297 297 299 298 302 303 305 305 303 306 302 302 302 299 299 298 296 300 298 298 298 296 297 298 295 294 303 304 304 301 301 301 300 300 297 294 293 292 293 292 295 301 303 305 303 301 299 297 298 297 297 293 291 303 301 291 287 288 287 295 308 323 321 319 322 324 324 322 322 325 327 327 329 331 332 332
306 297 307 317 314 314 307 299 298 298 295 294 293 298 298 309 301 302 304 305 304 301 306 304 303 302 300 299 298 298 300 296 298 297 299 294 300 297 302 305 303 303 297 295 298 304 300 298 294 292 294 296 299 306 309 309 306 304 303 302 304 303 299 292 287 292 302 302 302 295 291 294 310 319 321 322 324 325 326 326 325 326 326 327 329 332 334 333
301 299 310 313 315 314 303 298 301 300 295 296 302 301 302 302 301 302 301 304 302 304 304 303 303 302 302 302 301 299 300 298 299 296 300 301 301 303 303 303 303 302 300 298 302 301 321 295 292 294 297 300 302 304 307 308 308 306 306 305 304 301 302 298 293 298 296 300 295 296 292 296 308 319 321 321 323 325 327 327 325 325 326 327 329 333 333 333
302 303 307 317 319 315 304 295 295 296 297 300 300 300 303 302 302 301 301 303 302 303 303 304 304 305 302 305 301 300 302 295 301 298 298 301 299 304 303 303 305 303 301 301 298 303 296 297 293 289 286 289 293 297 298 302 304 302 302 305 304 305 307 306 304 300 296 298 299 292 288 294 305 320 321 322 322 322 324 327 326 323 324 326 329 332 333 333
302 307 306 310 319 312 301 300 299 297 300 300 301 300 301 302 303 303 303 302 305 302 303 301 304 304 302 303 302 302 302 299 297 300 300 301 304 306 304 306 307 303 308 307 323 305 296 298 293 286 284 284 286 286 288 291 295 301 308 308 306 307 306 302 298 296 288 297 300 294 293 299 306 313 315 316 316 316 319 324 326 325 325 326 328 330 329 329
302 298 307 309 312 310 307 308 305 302 300 300 300 301 303 301 304 306 306 306 307 306 304 304 303 304 302 303 300 300 301 302 300 301 301 299 301 305 304 306 307 307 320 329 317 305 300 301 296 291 287 286 288 292 297 305 297 295 300 304 304 307 308 305 299 294 291 295 297 297 298 298 303 307 309 314 317 315 315 321 321 321 323 324 324 327 329 328
307 303 303 300 309 305 305 307 307 307 302 306 298 303 301 301 302 304 308 302 306 305 305 304 305 302 301 302 299 299 299 299 303 303 301 300 301 302 304 304 307 317 334 321 315 301 297 294 296 297 296 295 296 297 299 304 296 297 296 301 303 305 306 303 299 294 298 297 290 298 302 302 302 307 309 312 315 316 320 321 322 320 322 323 323 326 333 329
296 303 310 311 301 295 302 303 308 308 309 308 303 307 302 300 300 298 304 306 307 305 301 302 303 302 301 301 301 299 299 299 301 298 304 302 300 303 300 303 306 319 317 305 310 299 294 291 295 297 295 297 297 297 298 300 300 299 298 299 301 305 304 302 300 303 302 295 293 298 304 302 304 309 312 313 314 317 321 323 324 324 323 323 322 322 323 325
306 309 310 313 304 306 306 307 310 309 307 307 305 308 303 302 301 303 303 303 305 304 304 298 301 301 301 302 303 299 301 297 295 302 301 301 301 301 300 301 304 309 303 302 303 304 297 293 297 297 297 297 297 298 298 297 299 297 297 299 303 304 304 304 303 305 304 301 301 305 306 305 309 311 314 320 322 322 321 323 324 322 322 322 322 321 322 325
304 304 304 310 309 306 307 307 307 306 303 307 302 304 305 304 303 305 306 305 303 303 305 301 303 305 304 303 302 301 301 300 300 301 305 302 301 302 299 298 297 301 302 300 303 304 297 295 310 299 297 296 298 300 298 297 297 296 297 296 300 304 304 304 305 307 307 305 308 309 307 306 314 318 320 322 321 322 320 320 322 322 323 323 320 322 323 325
310 313 312 305 300 302 307 305 303 302 300 302 301 305 307 305 304 306 305 309 306 305 307 305 306 305 306 303 303 302 303 305 305 305 303 305 299 302 300 302 302 300 302 303 304 305 299 295 301 296 291 292 296 297 297 299 297 297 299 300 299 298 299 302 300 304 303 302 305 306 303 306 312 320 321 320 319 319 319 319 320 322 324 322 321 323 325 327
311 313 314 307 298 307 301 303 303 302 297 302 308 308 306 306 307 307 302 308 308 308 309 308 308 305 304 303 303 305 307 306 306 307 306 304 304 303 303 304 304 301 301 301 304 298 298 296 294 293 289 292 296 298 300 298 294 292 295 301 304 302 302 304 306 310 307 306 301 299 299 308 317 322 318 317 319 320 319 320 318 320 320 320 320 322 325 327
Wind_Speed
13 13 14 14 14 14 14 14 15 15 15 15 15 15 15 15 14 13 13 13 13 13 13 13 13 13 13 13 13 13 12 6 4 2 1 10 7 8 7 4 5 9 9 2 0 1 3 2 6 4 2 0 4 6 6 5 2 2 1 3 3 2 2 2 1 2 3 3 3 5 0 4 3 5 2 3 6 8 5 7 7 10 7 11 15 18 18 16
14 14 14 14 15 15 14 15 15 15 15 15 15 15 15 15 14 14 14 14 13 14 14 13 13 13 12 12 12 12 9 4 3 3 12 6 6 9 5 4 3 9 8 0 3 2 1 4 6 4 4 2 3 2 10 2 3 4 1 2 4 4 2 5 3 4 4 1 3 2 6 6 9 1 1 3 5 6 5 8 11 11 13 14 19 17 17 17
13 14 15 15 15 15 15 15 16 16 15 15 15 15 15 15 14 14 13 13 13 13 13 13 12 12 12 11 11 10 7 3 2 4 8 13 15 6 5 5 6 7 5 2 4 6 7 6 2 2 4 6 4 4 10 2 3 3 4 1 2 4 4 4 6 2 3 3 2 1 4 6 9 3 2 1 3 4 10 11 12 16 16 16 21 17 17 17
14 14 14 15 16 16 16 16 16 16 16 16 16 16 15 14 14 13 13 13 13 13 12 12 12 11 11 11 10 6 2 2 0 2 2 0 8 5 5 6 6 6 2 2 2 1 2 4 7 5 4 8 6 8 8 4 3 3 3 4 4 4 7 3 10 6 5 2 2 3 4 9 3 2 2 2 7 5 8 11 17 18 18 16 20 20 17 16
15 15 15 15 15 16 17 17 17 17 17 17 17 16 15 15 14 13 14 13 13 13 12 12 11 10 10 10 9 3 1 2 1 2 1 7 6 6 5 6 6 4 6 2 1 3 5 7 4 3 2 4 1 9 7 6 5 3 1 1 4 3 5 5 11 9 6 6 5 3 7 4 3 1 2 0 9 9 9 10 14 17 17 17 17 17 16 15
15 16 15 15 15 16 17 17 18 18 18 18 17 17 16 15 15 15 14 13 12 12 12 11 10 10 10 9 4 3 1 1 1 2 7 6 6 5 6 7 7 4 3 0 1 2 4 3 2 2 3 1 1 2 6 12 7 4 1 3 3 1 6 2 8 7 8 7 8 2 5 2 1 0 1 1 4 6 9 13 14 14 14 14 12 12 14 14
16 16 16 16 16 16 16 17 18 18 19 18 17 17 16 16 16 14 13 12 12 12 11 10 9 9 9 9 2 1 1 5 3 2 10 7 6 7 7 7 5 2 2 1 1 0 0 4 3 4 3 3 5 3 12 5 2 7 3 3 4 6 6 2 5 5 3 9 8 4 1 1 1 1 1 2 1 8 14 15 14 13 12 12 11 12 12 14
17 17 17 17 17 17 17 18 18 18 18 18 18 18 18 17 15 14 13 12 12 11 11 9 8 8 7 3 0 2 1 6 7 3 9 7 5 6 7 3 4 2 2 4 2 2 1 4 4 1 0 2 1 7 5 13 5 4 4 3 3 5 2 4 6 3 2 3 2 2 2 0 1 1 3 1 5 13 14 14 14 12 12 10 11 11 11 14
17 17 17 18 18 18 18 18 18 18 18 18 19 19 18 16 15 14 13 13 12 11 10 8 7 6 4 1 1 4 3 5 6 7 8 7 5 5 6 3 4 3 1 2 4 5 1 3 3 1 3 5 1 13 9 10 2 1 3 6 5 4 4 5 6 4 2 1 2 2 1 1 3 3 1 2 2 12 15 14 15 13 13 10 11 10 12 12
17 17 17 18 19 19 19 19 19 18 18 18 19 19 18 17 16 15 14 12 13 10 9 7 6 3 1 0 0 3 5 5 5 8 10 9 7 5 4 2 7 4 1 6 3 2 3 5 3 5 2 2 2 6 4 3 6 7 9 7 8 5 5 5 4 4 3 3 5 2 1 1 3 2 2 1 6 15 15 15 14 13 12 11 10 8 13 14
18 18 17 18 19 19 19 19 19 19 19 19 19 19 18 17 16 15 14 11 12 11 9 7 4 3 1 2 1 3 4 7 3 6 9 8 9 6 6 5 4 3 5 5 4 4 7 4 3 4 1 1 3 5 2 7 14 11 13 11 9 8 7 5 7 3 1 2 5 3 1 2 2 0 2 2 10 13 14 14 14 12 12 11 9 8 12 12
18 18 18 18 19 20 19 19 20 20 19 20 20 19 19 18 17 15 13 11 11 10 7 3 2 1 1 1 2 7 5 4 7 5 8 8 6 9 9 8 7 7 5 5 3 3 3 4 3 3 1 0 5 8 7 13 12 12 10 10 2 4 6 6 3 2 0 1 4 3 0 1 2 2 1 3 4 7 13 15 14 13 10 7 7 10 9 9
18 19 19 19 19 20 20 21 21 21 21 21 20 21 20 18 17 15 13 10 7 7 5 2 2 2 1 3 7 9 3 2 9 7 5 6 4 7 7 7 9 9 9 5 3 5 5 4 2 5 1 1 3 3 7 6 9 6 3 9 4 2 5 3 0 1 3 1 1 4 5 5 4 3 2 3 1 8 10 10 10 7 7 7 10 10 8 8
17 16 17 18 18 19 20 20 20 21 22 21 18 21 20 18 15 14 13 10 9 9 8 5 1 2 0 4 5 3 4 7 9 5 7 8 6 5 5 5 6 7 4 4 5 6 5 3 2 4 2 2 1 9 12 5 1 2 4 3 4 4 2 2 1 2 4 1 1 4 2 5 6 4 3 4 5 9 10 8 9 8 8 6 10 9 7 8
19 20 18 16 17 17 18 19 19 21 22 22 20 22 21 18 14 13 11 7 7 9 3 3 1 0 1 6 5 8 10 2 7 8 7 5 3 3 5 6 5 6 5 5 1 2 2 3 3 2 3 1 5 3 4 3 1 1 2 1 1 5 1 1 3 4 6 2 1 2 2 7 6 3 3 3 5 6 4 2 8 9 9 9 9 9 8 7
19 20 19 20 20 20 19 19 18 18 21 23 22 24 22 15 11 9 8 5 4 4 3 1 1 0 2 5 1 6 1 2 5 7 5 5 5 6 7 9 4 4 3 3 5 3 3 1 1 2 3 2 2 5 6 2 1 1 2 2 1 3 3 1 3 7 3 5 2 3 4 1 3 4 2 2 7 6 6 7 11 4 9 11 10 9 8 7
18 18 18 20 20 20 20 18 18 19 21 23 25 25 17 10 7 8 5 6 3 2 2 1 2 2 1 1 4 1 2 6 2 2 3 5 6 5 0 2 2 3 3 2 1 1 2 1 2 1 0 3 2 5 6 3 3 4 1 3 3 6 4 1 0 5 4 6 3 2 3 4 2 2 1 2 5 6 6 5 6 5 6 10 10 9 8 7
20 19 19 19 20 20 19 18 18 19 20 22 22 20 17 10 6 5 3 3 1 2 3 3 2 1 6 3 1 5 3 3 4 7 8 4 4 1 1 1 2 2 1 1 1 0 0 1 0 3 4 2 2 2 3 6 8 5 2 3 1 1 6 7 8 7 9 2 5 2 1 4 3 2 3 1 3 6 5 3 3 5 2 9 10 9 8 8
22 21 20 19 19 20 19 18 18 19 20 24 21 19 5 6 6 2 4 3 2 2 1 0 2 1 3 6 9 5 3 7 3 6 4 1 1 3 1 1 1 5 1 2 3 3 1 1 4 2 3 5 5 6 9 8 3 9 10 6 5 7 5 6 5 4 12 5 5 6 6 6 4 4 3 2 2 5 5 2 2 1 3 7 9 8 8 9
21 20 20 20 20 20 20 18 17 16 18 17 12 6 2 4 3 1 1 0 3 6 10 10 6 4 7 9 2 2 1 4 5 4 2 1 2 1 2 0 1 2 3 2 1 2 3 2 2 5 8 9 9 8 9 10 8 6 4 5 8 6 1 1 2 5 6 5 5 7 4 4 6 6 5 3 3 2 4 4 2 1 3 7 8 8 10 8
20 20 20 21 20 20 19 19 17 14 12 7 6 2 2 1 3 5 6 7 8 8 9 11 11 11 9 0 2 5 4 3 1 3 6 1 2 3 3 1 0 2 3 4 4 1 4 1 7 10 12 13 12 8 6 6 12 8 7 7 4 0 7 2 3 6 5 3 3 4 4 6 7 5 4 3 4 5 6 5 4 3 3 4 7 10 9 12
20 20 20 20 21 21 20 20 17 14 9 2 0 1 2 2 3 3 2 9 13 9 10 14 7 9 8 11 8 7 4 2 2 3 3 5 2 4 2 3 2 6 3 0 1 1 3 7 11 12 10 5 5 8 12 8 10 6 7 6 6 1 2 4 3 6 6 1 2 4 4 5 4 4 3 4 5 2 4 6 4 5 4 3 5 8 10 12
21 21 20 21 22 22 22 20 18 11 2 1 3 3 4 5 4 5 3 2 7 10 7 6 5 8 10 9 4 6 4 3 4 2 4 4 3 6 1 1 4 4 1 4 5 2 2 7 14 12 7 9 11 7 4 3 5 8 7 7 8 9 9 2 2 4 4 3 2 4 4 3 3 3 3 3 3 0 2 3 4 5 6 5 8 9 10 14
20 21 21 21 23 23 25 21 16 1 1 4 3 4 7 9 7 5 2 1 4 9 5 7 4 4 6 5 4 5 5 3 4 6 4 5 6 4 2 4 4 1 6 5 8 9 10 11 8 8 8 4 1 2 5 4 5 2 10 3 5 8 2 4 7 5 2 2 4 5 2 4 3 3 3 4 2 1 1 3 3 3 3 4 3 8 8 13
21 20 21 22 23 24 26 20 3 4 7 3 4 4 5 11 4 5 2 3 3 6 4 3 4 2 4 2 3 4 2 0 6 6 5 6 3 2 3 2 3 7 10 8 9 9 10 12 3 4 5 1 3 3 1 2 1 4 2 8 11 9 7 4 9 9 3 3 3 8 1 3 3 6 7 3 1 4 3 4 6 6 4 4 4 7 6 7
20 20 20 20 22 24 27 3 2 7 9 4 4 7 9 8 5 4 2 1 4 5 1 3 1 3 0 2 2 2 3 1 5 6 7 6 5 4 0 3 2 5 5 4 8 5 8 6 2 3 5 3 3 1 3 3 2 1 4 5 10 13 8 12 11 5 2 4 6 4 3 3 2 4 6 4 4 8 3 5 6 6 6 5 5 5 9 8
20 20 20 18 18 20 10 1 4 8 3 2 7 11 11 10 6 4 3 2 3 3 3 1 2 1 1 3 4 3 1 3 2 1 2 2 3 2 3 5 3 2 2 0 3 2 2 6 2 1 1 0 1 1 2 3 4 1 4 8 12 10 9 14 14 7 5 3 1 4 2 1 3 5 3 5 6 6 6 7 6 6 7 6 6 6 8 10
19 19 18 18 16 8 4 5 7 4 5 6 6 11 11 9 5 4 2 1 2 2 1 2 1 2 0 3 7 3 4 5 1 3 4 4 4 0 2 4 3 7 5 1 2 6 2 2 1 1 1 1 3 4 4 1 3 3 4 6 12 15 11 12 12 9 4 7 3 7 2 1 3 2 1 7 5 5 10 10 10 8 8 8 8 8 7 11
22 19 17 16 17 13 5 3 0 4 5 4 8 10 8 6 3 3 3 1 2 1 2 3 2 1 1 3 0 2 0 1 4 4 1 1 1 3 1 6 4 6 4 5 5 3 1 2 5 6 4 4 4 1 2 3 1 2 2 4 6 5 9 14 10 5 1 3 4 7 5 3 4 2 2 0 2 7 10 12 11 10 10 10 9 9 7 8
23 19 15 14 10 2 1 1 6 8 6 8 9 11 8 4 3 2 2 2 1 2 1 1 1 4 4 5 3 3 4 2 3 1 1 4 2 1 2 3 0 1 4 2 1 7 4 2 5 5 5 5 2 3 3 4 6 2 5 4 2 6 8 4 2 3 3 2 5 9 9 5 2 4 5 7 7 9 8 4 6 7 8 9 9 10 9 8
23 21 13 7 2 2 3 5 9 7 7 5 9 6 2 4 2 2 0 5 1 1 1 1 3 4 5 4 3 3 2 4 3 3 2 1 1 0 2 3 3 2 2 4 5 4 3 1 1 1 5 1 3 1 3 1 2 2 2 2 4 3 3 4 1 2 1 4 5 3 7 4 3 3 3 6 3 2 8 9 11 12 12 11 9 9 9 9
24 23 16 5 5 1 4 6 2 3 6 7 5 3 3 1 4 2 6 4 1 2 4 3 3 3 6 6 5 3 4 2 4 4 6 4 4 3 4 5 2 1 4 2 6 5 2 5 2 2 2 6 0 1 5 6 7 7 4 5 3 2 3 2 2 1 4 3 3 2 5 2 2 4 6 7 9 3 4 6 10 13 13 12 11 10 9 9
25 23 22 8 9 4 9 13 6 8 7 6 2 3 2 3 2 5 3 2 1 3 2 2 4 6 4 4 3 4 5 4 4 5 6 3 5 7 4 7 4 6 1 3 2 1 6 1 2 2 4 1 4 4 1 3 6 6 1 2 5 2 1 1 2 1 2 1 2 4 2 1 2 3 3 5 4 4 8 9 8 10 12 13 12 11 10 10
26 21 10 5 10 11 5 1 3 3 3 3 2 5 5 2 5 6 4 3 4 4 2 2 5 6 6 6 4 6 4 4 7 4 6 3 4 3 6 6 4 1 2 2 3 1 6 2 3 4 2 2 3 4 6 5 4 1 2 5 6 5 2 1 0 1 1 3 2 3 1 1 1 1 4 5 5 6 4 5 7 8 10 11 10 9 10 10
27 17 8 3 5 10 14 7 3 2 1 2 6 4 4 7 2 1 1 2 2 4 7 5 4 2 2 1 2 4 5 2 4 4 5 4 4 4 3 5 6 3 1 2 1 1 1 5 6 5 2 4 3 3 5 6 5 2 3 5 6 1 5 2 3 3 2 1 1 1 1 2 3 1 1 2 3 4 4 4 1 4 3 4 6 9 9 8
16 9 5 3 3 5 8 8 6 1 4 4 5 2 7 5 2 1 1 2 1 3 13 8 1 1 1 2 3 0 1 3 4 2 1 5 5 3 1 2 3 9 4 2 1 2 4 4 0 5 2 4 4 1 1 5 1 3 3 1 3 5 5 2 1 2 2 4 1 1 1 2 3 0 1 3 5 5 3 2 2 3 3 4 6 7 7 5
10 10 5 2 4 3 8 9 8 6 4 7 4 5 5 3 4 3 4 5 6 4 4 4 1 2 1 2 2 1 2 1 2 3 3 1 2 1 2 1 3 2 4 6 1 1 2 5 3 1 2 1 1 3 2 1 7 4 5 5 1 2 5 3 1 2 2 1 2 1 4 1 1 1 5 6 6 5 3 2 0 0 1 5 4 5 6 5
9 6 7 6 7 7 9 9 10 3 4 5 3 6 2 2 1 2 5 8 9 5 3 4 3 4 1 0 3 4 3 3 2 3 2 0 1 1 2 1 3 1 1 2 4 1 3 3 3 3 4 1 0 6 8 6 2 8 6 5 5 1 2 4 3 1 1 1 1 2 0 1 2 2 6 5 4 6 6 6 2 0 2 5 4 4 4 5
3 2 6 4 4 11 9 10 5 6 4 2 3 2 4 4 3 5 6 6 4 5 4 4 2 1 1 3 4 3 0 2 4 3 2 1 3 2 1 3 1 5 3 7 5 2 4 2 3 4 5 2 3 4 2 1 6 5 4 4 1 7 2 2 1 2 4 1 2 2 0 2 1 1 2 4 3 2 3 5 3 3 3 2 2 4 4 4
6 5 3 3 8 8 11 6 5 3 3 3 3 4 2 4 3 8 8 3 3 1 4 3 0 1 2 0 3 3 2 2 4 3 2 2 2 1 1 1 4 1 7 8 3 1 1 2 1 4 6 5 2 0 5 6 6 3 5 2 0 2 1 6 3 2 3 3 2 1 2 1 4 3 2 2 3 1 0 3 4 5 6 5 5 5 3 3
3 1 3 4 3 9 7 4 3 1 1 3 2 3 3 3 4 6 12 9 5 6 8 7 1 1 1 2 5 1 1 1 1 1 1 2 2 1 3 1 2 5 3 8 8 2 2 2 1 3 6 4 4 2 4 5 8 6 6 5 7 4 2 1 1 3 1 3 2 2 3 4 5 1 2 2 2 0 1 1 1 4 4 4 6 7 7 6
4 4 2 2 5 3 4 2 1 2 1 2 4 2 3 5 5 11 7 6 7 5 6 2 1 1 1 2 3 2 1 2 0 2 2 3 2 5 3 2 6 3 4 2 2 2 2 2 3 2 1 2 2 2 6 6 3 5 6 2 3 4 6 5 2 2 0 1 3 3 2 4 4 2 4 4 2 1 3 3 0 1 1 4 5 4 4 5
4 5 11 12 11 1 1 1 1 1 2 4 2 6 6 7 7 8 7 8 5 5 1 2 2 2 2 1 1 1 1 1 1 2 1 1 2 5 7 9 8 7 7 1 2 1 3 2 3 4 5 6 5 1 5 6 7 5 4 3 5 4 5 6 3 5 4 2 1 1 1 4 3 4 4 2 3 3 2 5 3 0 1 2 3 3 3 3
3 4 7 3 3 2 1 2 2 3 4 4 4 8 5 5 6 8 6 9 3 2 2 1 3 3 3 0 1 1 0 1 1 6 2 1 2 4 3 7 8 2 4 4 3 2 1 1 4 1 2 5 5 4 5 7 4 1 2 2 4 4 5 3 4 2 3 3 4 4 2 2 3 1 1 2 4 4 2 2 4 1 2 2 2 1 0 0
5 4 5 8 3 4 5 4 2 4 3 4 4 6 5 4 5 9 10 10 7 5 0 2 2 0 2 1 2 1 2 3 2 2 6 1 0 2 4 9 7 4 2 5 7 4 4 2 2 2 1 3 1 0 2 3 2 1 0 1 4 10 10 6 2 0 3 2 4 2 3 6 5 2 1 2 4 5 3 3 2 2 2 3 2 3 3 1
4 3 5 4 4 2 2 3 3 3 4 4 8 6 5 7 6 5 6 8 9 9 6 3 4 2 1 0 2 1 1 1 1 1 1 1 1 1 3 7 7 3 7 10 6 4 2 1 4 6 6 6 6 5 6 1 2 1 3 5 5 7 6 6 5 4 4 4 5 6 5 2 3 5 3 4 3 5 4 2 2 2 2 2 2 1 2 3
0 2 4 6 7 4 5 3 7 6 5 4 3 4 9 6 4 6 3 4 5 6 1 3 1 1 2 1 2 4 3 3 1 0 1 4 4 5 9 8 5 11 13 6 5 5 2 1 2 6 7 7 8 5 5 4 4 4 3 6 6 8 8 9 8 5 5 8 3 4 5 4 6 5 5 5 4 4 3 2 0 1 2 2 2 2 5 5
1 1 2 2 1 3 8 6 9 10 12 7 4 6 9 10 6 4 6 5 6 5 4 2 3 4 3 5 0 1 2 4 2 3 0 1 2 1 4 3 3 8 8 3 4 4 4 1 3 2 3 3 4 6 4 1 2 4 5 5 8 9 8 8 7 4 11 7 7 6 7 6 5 6 5 5 4 4 5 4 2 2 2 1 0 2 3 4
1 2 1 5 2 2 2 9 11 9 10 6 3 5 5 3 4 3 2 5 8 3 2 3 3 4 4 2 1 2 1 1 4 1 1 1 1 3 2 2 2 1 4 2 1 2 4 1 3 4 1 2 4 4 3 4 4 7 5 2 7 11 11 12 6 8 11 6 7 7 10 8 2 3 2 2 3 4 3 1 0 0 2 2 1 0 2 4
2 2 3 2 2 4 5 4 6 8 8 7 3 5 4 5 7 10 8 3 3 6 1 0 6 7 8 1 3 0 2 3 2 1 3 4 0 2 3 4 4 2 2 3 3 1 4 2 3 1 1 2 3 4 5 5 4 4 7 5 10 10 8 5 3 5 7 1 2 3 5 1 1 0 1 2 2 0 1 3 3 3 2 1 1 1 1 4
3 2 1 3 5 3 2 3 5 6 6 5 2 7 8 6 6 5 9 5 4 3 3 2 4 8 10 6 6 5 4 3 3 1 4 0 1 5 5 3 5 6 4 2 1 1 2 1 2 2 2 5 3 3 5 4 3 4 3 7 2 8 3 1 3 4 5 1 3 6 3 3 2 2 1 2 2 3 5 5 4 2 0 1 2 1 2 3
3 2 3 1 1 2 4 3 5 4 3 2 6 9 6 11 8 6 6 5 8 6 0 3 3 5 5 7 8 7 10 1 2 0 2 1 1 2 3 7 11 10 4 5 2 5 3 4 3 2 3 2 4 2 0 1 4 5 3 0 1 3 4 5 5 5 1 9 8 6 5 5 7 5 4 3 4 5 5 4 3 3 2 1 0 1 3 4
Wind_Direction
347 345 342 340 338 336 334 332 330 329 327 327 327 327 327 330 332 331 329 328 325 322 322 321 319 318 320 318 316 324 329 332 322 219 190 243 206 210 179 220 290 205 196 136 339 44 301 239 243 242 270 57 228 190 174 185 150 66 58 115 98 139 86 153 120 111 29 29 341 329 203 176 284 268 243 62 98 134 113 133 120 120 113 116 109 116 125 124
347 345 343 341 338 336 333 331 330 330 328 327 327 326 328 329 329 330 330 329 328 323 322 321 319 317 317 311 316 325 329 295 271 258 231 237 215 240 204 174 121 158 158 209 188 183 238 270 245 211 205 227 203 232 155 216 135 103 138 77 165 162 172 142 124 101 128 79 94 283 321 277 233 173 341 102 120 151 93 127 133 116 119 111 116 123 126 129
349 346 343 341 338 335 334 333 331 331 331 328 326 326 328 328 331 330 332 329 325 324 321 320 318 317 309 312 314 327 338 278 238 266 260 236 229 216 165 164 163 168 176 175 198 187 198 224 247 334 216 219 199 202 181 194 147 218 112 115 231 197 134 120 113 81 48 92 301 34 249 261 264 7 335 113 149 119 126 140 126 131 138 134 131 133 135 138
350 348 344 341 337 336 335 334 333 332 331 330 327 328 330 332 330 330 329 328 324 323 323 319 316 312 309 308 317 324 292 291 263 254 253 81 184 188 167 157 169 184 198 252 219 190 284 299 280 228 233 203 216 168 180 171 193 183 80 177 193 190 121 162 97 141 147 191 257 215 282 262 263 343 21 177 100 118 135 156 145 145 146 143 142 142 147 145
349 348 345 341 338 336 335 335 334 333 331 329 330 329 330 330 330 328 328 328 325 324 322 319 315 305 309 308 321 325 284 45 264 227 201 165 170 183 164 164 181 199 190 222 328 261 257 265 283 279 239 282 124 141 196 152 207 85 10 342 141 140 79 150 137 162 163 146 170 237 247 219 321 348 46 185 138 151 156 151 141 140 144 147 149 146 147 150
347 346 344 342 339 337 335 335 334 332 332 330 329 328 329 329 329 329 329 326 326 320 320 317 310 310 311 313 305 286 24 85 251 247 163 179 171 172 169 173 196 214 186 226 162 308 307 312 356 342 337 8 291 179 187 161 174 100 327 42 32 360 118 121 142 154 145 148 180 191 237 342 12 281 259 141 168 162 140 140 138 138 142 145 145 147 151 149
346 344 343 342 339 337 336 334 333 332 331 330 329 329 328 328 329 329 326 323 318 317 316 315 308 313 315 301 258 304 121 256 268 199 152 160 177 161 175 183 185 156 106 34 334 219 355 305 274 255 242 289 300 168 148 125 86 121 169 140 48 64 85 156 120 148 181 157 191 202 181 101 297 80 327 356 181 152 139 133 134 137 136 144 150 160 153 146
344 343 342 340 338 336 334 332 331 330 330 329 329 328 327 327 327 323 323 318 312 310 312 309 309 310 330 310 125 349 57 254 235 130 154 142 162 179 174 162 162 131 110 218 161 239 355 257 267 272 306 304 252 83 116 88 51 83 128 141 114 73 88 88 111 121 109 139 196 179 99 263 245 109 347 317 96 139 134 133 133 140 144 153 161 171 141 147
343 343 342 339 337 335 333 331 329 329 329 328 327 326 326 324 320 318 316 316 307 303 304 301 306 304 308 304 183 357 283 238 165 166 147 155 196 166 157 166 180 135 187 255 219 229 76 264 281 112 327 325 229 127 165 115 22 186 98 112 112 103 102 92 89 79 55 105 32 66 5 342 258 247 320 218 290 141 137 137 140 143 158 168 175 172 137 148
343 343 340 338 335 333 331 329 328 328 327 325 325 323 321 321 316 313 311 312 303 301 296 297 286 295 344 203 56 47 260 150 137 159 164 171 159 155 210 224 151 177 161 254 254 222 208 254 289 305 253 214 315 137 155 120 152 108 108 108 106 101 75 29 63 25 331 85 23 128 90 290 314 137 96 106 165 139 141 143 146 152 167 177 180 158 145 149
343 342 339 337 334 331 330 329 327 326 324 324 321 317 315 316 312 309 307 304 300 299 294 292 282 238 232 245 74 265 246 112 185 171 175 171 148 157 203 210 176 166 215 277 268 238 243 261 314 311 47 279 78 355 339 114 115 114 115 86 73 86 82 88 59 358 344 42 14 77 316 270 297 122 112 77 155 149 144 149 155 157 174 179 173 129 146 152
342 340 338 335 334 331 330 327 326 324 324 321 316 311 310 310 307 304 299 300 295 291 294 290 211 254 274 76 172 231 203 191 163 186 181 169 169 199 200 197 176 198 181 237 255 260 272 309 7 24 256 283 63 66 73 120 116 149 126 85 66 71 62 25 96 240 128 84 360 321 59 346 334 144 83 333 276 151 150 157 161 167 170 160 116 131 143 152
341 340 337 335 334 331 328 327 324 323 321 317 313 309 307 304 302 297 292 294 273 269 271 264 195 259 320 345 233 237 250 205 172 176 198 204 209 207 208 199 197 203 201 218 282 288 296 304 16 343 235 352 150 166 156 146 127 142 7 123 131 56 53 15 94 108 77 218 57 350 141 260 269 263 3 343 94 146 157 156 152 152 137 127 134 135 148 140
338 335 336 335 331 329 327 324 323 321 319 316 311 307 303 300 294 289 282 264 258 262 256 223 229 266 270 247 281 234 267 156 172 170 202 219 206 240 236 244 216 213 207 207 245 261 287 292 345 271 222 124 3 117 144 148 126 80 160 76 119 83 58 222 170 191 100 289 360 76 138 232 271 305 347 16 35 148 157 160 146 138 128 136 137 143 147 146
337 335 330 326 324 324 323 321 319 319 317 316 311 306 300 295 288 278 266 258 249 247 199 160 205 27 38 277 257 276 238 107 153 201 193 175 213 313 253 241 239 225 207 212 228 259 230 328 10 359 300 162 112 143 126 185 52 218 53 6 37 96 188 259 225 198 134 246 205 78 148 212 264 277 329 10 63 70 83 150 138 141 148 144 144 145 147 156
336 333 328 328 326 325 323 320 318 317 318 317 312 305 296 291 280 259 237 205 191 135 125 189 205 201 342 308 281 322 351 161 240 225 228 176 186 217 225 223 213 239 235 278 234 264 313 39 217 221 288 15 117 128 138 94 281 244 123 202 84 84 175 67 251 212 187 135 97 174 181 290 285 263 308 18 79 71 88 92 123 181 154 143 150 150 152 151
334 332 329 326 325 323 322 319 319 319 319 316 313 302 288 277 242 220 194 189 197 201 222 77 111 198 29 252 332 304 211 240 250 189 235 218 181 201 146 170 198 205 209 272 290 289 318 49 271 316 274 226 155 115 88 221 238 255 105 161 190 145 147 192 165 205 158 151 173 221 137 209 234 260 225 33 88 91 89 103 107 165 181 149 152 153 149 145
335 332 329 325 323 323 319 320 320 320 318 316 310 290 296 291 197 119 107 150 192 173 236 262 228 351 282 316 281 221 201 197 180 184 205 246 189 240 217 192 249 183 95 352 354 242 278 308 67 206 338 327 45 84 141 213 190 201 192 102 152 90 180 155 163 205 142 214 150 177 195 195 244 240 214 163 98 104 112 113 120 117 202 157 155 158 149 144
334 330 328 326 324 322 320 318 323 323 324 318 293 278 265 75 110 218 123 154 113 2 29 162 129 127 203 222 229 291 187 186 131 140 229 149 261 207 212 183 123 106 171 104 287 154 313 348 21 12 271 284 253 156 197 220 196 188 188 167 146 154 205 193 201 151 154 146 147 176 189 206 244 223 227 206 117 124 119 122 93 84 152 172 159 155 157 151
333 329 327 326 325 321 319 320 323 324 337 339 355 5 57 5 12 26 79 39 200 219 244 245 194 245 301 307 194 239 11 102 123 249 248 248 146 344 298 136 292 134 118 194 302 239 123 137 196 227 235 239 255 226 214 229 205 198 131 128 173 162 151 41 153 162 140 111 201 189 198 206 219 210 225 196 119 111 130 147 181 191 130 180 158 160 158 143
330 330 326 325 324 322 317 320 322 322 331 312 298 12 38 301 345 342 314 267 225 225 234 246 194 215 230 290 132 142 122 256 201 194 221 175 104 99 276 101 48 238 231 192 163 259 90 136 241 226 230 226 229 240 243 245 236 166 165 145 129 25 183 222 156 144 182 130 224 178 181 212 212 224 226 189 159 195 178 164 175 186 141 184 162 158 151 111
328 329 328 326 324 323 319 319 320 320 331 258 312 33 234 218 192 230 283 321 315 278 211 246 221 237 254 241 207 168 110 167 262 290 258 146 212 135 282 156 131 208 267 68 21 1 171 203 237 233 238 266 285 275 266 244 162 169 139 161 123 184 103 14 59 151 185 96 264 145 194 245 265 255 241 193 196 199 201 176 174 185 148 198 169 165 140 145
328 328 329 328 327 323 321 318 319 335 169 84 6 318 272 239 304 308 256 246 253 275 284 251 246 227 246 241 194 133 154 181 212 242 218 160 106 191 159 181 221 232 178 126 177 174 264 273 249 247 240 246 246 227 188 75 83 107 121 121 184 178 150 210 293 169 189 174 193 156 177 291 303 304 279 246 197 167 224 213 195 177 153 191 182 173 160 162
329 327 328 330 328 326 318 321 311 135 300 275 248 225 265 299 293 313 25 225 281 302 235 238 213 208 216 192 202 154 163 219 135 216 235 134 164 186 170 189 244 312 264 192 183 183 204 226 222 225 228 179 171 358 56 60 354 149 157 149 130 174 287 143 185 160 174 241 108 95 85 322 272 255 262 259 205 256 280 204 244 262 158 183 204 170 175 164
329 328 329 329 331 327 317 316 37 323 307 260 227 238 304 325 320 257 24 327 332 274 247 284 179 227 200 64 110 154 218 214 184 188 186 159 174 94 227 186 165 233 228 223 186 194 238 251 258 183 220 357 82 38 358 93 28 327 163 171 177 164 136 142 124 126 131 257 216 154 59 274 243 228 231 254 173 220 200 183 213 222 212 153 191 183 180 179
330 329 330 329 330 333 310 347 6 316 332 302 266 323 324 313 305 264 101 63 299 271 289 254 87 229 24 172 100 180 70 260 199 185 168 205 166 162 226 277 189 260 235 194 181 189 206 253 136 145 127 99 70 354 251 127 154 17 281 175 151 167 159 138 124 109 128 182 228 179 139 267 325 257 232 199 210 228 203 200 212 215 217 179 189 187 181 184
329 329 330 330 332 344 359 352 311 304 344 325 335 326 319 317 326 26 58 341 337 254 174 262 62 277 317 186 155 72 36 239 217 324 183 166 168 151 180 257 339 278 260 84 42 296 199 232 314 67 82 43 73 183 276 159 109 258 249 114 152 153 134 150 152 159 196 201 31 168 112 219 311 285 230 173 182 226 238 232 218 212 213 195 187 188 181 185
324 328 327 326 326 342 217 322 341 339 241 254 312 317 309 310 322 49 79 27 288 244 175 247 216 321 82 194 137 141 203 184 86 258 190 205 108 331 148 239 215 245 273 50 152 256 165 323 282 80 79 124 196 208 242 95 133 205 303 137 166 166 157 147 157 192 194 130 150 216 147 13 255 259 350 147 169 231 234 228 224 208 209 205 190 189 185 183
323 326 327 324 321 312 193 197 335 251 241 290 312 306 316 319 61 98 115 101 192 244 9 115 327 38 287 44 185 192 103 177 162 237 53 53 233 142 224 245 222 267 276 165 191 292 241 159 188 153 125 216 231 237 193 179 267 277 210 88 134 119 151 156 176 182 63 79 208 221 181 199 280 272 74 47 205 236 230 222 220 210 204 204 193 194 184 184
319 323 327 324 320 125 173 178 234 240 285 306 303 305 318 29 41 39 30 283 118 264 218 274 164 196 148 152 229 194 166 218 223 44 139 161 244 52 234 192 222 356 320 351 273 221 238 232 187 119 177 206 183 247 189 165 195 145 73 54 44 102 154 168 109 123 91 235 251 203 192 162 284 265 190 155 209 207 215 218 220 213 211 209 200 189 185 181
317 318 324 327 314 293 332 279 252 236 245 284 303 303 63 39 109 103 90 232 279 252 84 154 226 88 148 160 228 239 159 162 237 146 206 175 10 25 349 357 18 31 22 355 308 276 260 254 284 236 169 76 124 270 317 82 207 107 54 93 27 337 60 65 318 66 141 281 273 279 188 147 179 297 288 241 264 209 181 193 196 200 203 204 200 191 188 180
317 315 314 284 212 305 193 228 222 26 332 328 334 38 70 41 5 142 215 353 40 239 178 200 233 170 203 203 198 184 189 200 186 169 177 192 178 163 228 190 158 26 339 260 262 338 295 200 245 211 194 165 102 67 310 3 14 50 47 38 90 268 24 316 9 228 198 206 280 80 111 40 271 215 262 282 239 235 212 208 201 197 194 195 196 190 184 183
316 314 310 269 199 196 239 250 335 325 327 326 32 56 68 106 225 244 276 302 254 152 262 131 196 191 196 184 235 232 204 185 218 205 165 220 152 241 222 195 174 138 174 261 206 5 290 34 66 140 311 149 123 124 298 15 341 46 117 109 79 57 42 256 279 213 328 267 274 45 46 108 256 298 294 308 298 223 200 210 207 192 191 190 192 188 180 182
313 314 316 176 184 206 232 198 225 267 323 10 77 39 53 87 239 222 225 239 239 295 245 205 194 194 177 178 226 173 197 251 181 210 161 195 154 249 278 249 154 98 193 270 59 359 50 33 279 145 278 222 132 148 172 163 103 125 131 118 168 135 154 215 226 125 223 220 277 327 64 228 96 240 321 304 303 305 303 234 197 191 188 191 189 187 179 179
310 298 251 257 232 234 229 221 258 295 35 64 54 88 146 235 248 215 261 302 301 290 288 214 157 205 327 302 262 164 156 236 195 173 194 142 206 192 202 243 181 158 184 78 279 83 25 220 240 204 238 144 164 207 139 102 54 334 124 94 72 181 152 131 205 155 196 159 32 347 194 171 163 229 304 315 316 4 359 7 78 150 152 156 171 187 189 182
311 326 281 237 212 249 162 185 199 245 108 66 83 122 215 190 214 153 198 264 304 19 316 335 6 116 259 297 301 139 317 151 228 125 249 186 208 186 231 165 144 173 154 128 206 28 10 53 270 295 23 153 201 203 351 116 134 242 55 39 202 180 111 100 3 323 38 48 235 186 18 322 315 340 5 4 7 351 360 47 94 123 117 154 182 187 190 176
340 325 344 237 229 156 137 154 155 140 80 98 107 227 215 275 222 293 294 314 302 312 319 346 285 187 224 264 260 268 184 67 235 136 271 250 348 306 132 79 146 122 170 134 356 199 138 250 280 60 236 261 317 113 102 130 138 73 95 217 223 76 115 118 185 324 58 131 251 131 185 265 42 270 340 13 12 343 353 319 259 214 139 171 193 194 185 149
320 305 256 251 233 130 134 147 134 96 86 87 192 235 244 255 297 346 309 317 317 339 10 289 273 162 244 128 304 241 218 161 228 153 231 97 149 265 70 64 330 111 121 80 125 257 106 10 301 6 16 261 281 54 43 353 28 141 180 189 95 289 9 320 90 14 23 331 274 349 206 250 158 282 352 342 358 341 334 357 2 304 205 189 191 208 203 120
256 347 337 289 128 131 137 144 94 95 62 99 250 282 264 229 258 280 284 297 284 299 316 241 175 293 100 24 320 301 187 152 199 198 91 265 140 283 169 152 21 11 91 91 63 300 51 151 302 326 15 297 31 64 119 325 353 30 73 45 95 100 149 92 166 180 114 243 48 268 40 212 241 226 276 295 310 312 350 4 355 348 350 318 269 216 211 169
2 356 298 323 124 122 137 121 75 54 75 174 227 231 282 305 284 281 276 287 303 307 246 250 48 3 5 198 322 304 274 202 146 233 126 238 106 308 69 343 153 55 73 87 97 92 80 110 280 270 320 45 20 259 197 165 121 37 44 16 15 39 220 113 27 94 152 170 176 183 330 281 256 224 218 282 315 306 100 323 323 346 347 357 2 340 299 245
277 152 297 25 54 126 116 66 62 108 169 262 208 255 301 278 320 299 291 294 285 246 236 273 261 293 211 351 323 241 297 294 175 207 168 119 121 66 334 258 126 127 90 49 63 13 71 20 248 323 23 355 282 248 138 134 146 150 146 161 165 129 86 103 265 350 51 96 197 117 241 261 266 195 202 221 223 205 178 129 317 315 336 349 342 335 330 318
17 19 269 311 347 336 81 100 249 187 148 220 238 195 267 273 256 268 290 285 258 272 263 253 223 193 198 209 191 282 301 291 220 107 330 143 205 139 222 80 97 124 101 97 144 214 141 150 88 31 171 237 269 342 139 127 110 149 132 165 141 105 101 100 117 254 18 244 132 154 124 276 236 206 220 227 202 215 156 139 85 303 329 331 324 309 309 298
25 247 265 276 280 239 26 72 298 233 221 232 236 268 260 268 265 280 289 283 294 274 258 207 216 18 254 189 43 357 351 293 184 134 176 100 123 145 195 162 132 84 89 338 16 313 80 64 29 311 313 310 328 296 80 125 107 48 30 96 104 133 169 162 173 188 133 127 54 9 181 247 275 226 243 298 268 260 177 142 147 251 252 258 282 308 319 333
281 285 314 307 255 158 160 222 271 261 263 285 257 262 242 262 275 286 271 277 272 296 294 303 313 213 229 250 205 226 242 19 328 101 25 134 123 253 181 75 89 49 98 218 131 257 70 302 117 14 2 338 347 347 1 340 42 100 167 219 147 119 90 131 103 60 88 225 163 113 243 285 274 261 348 306 287 272 260 174 144 186 295 283 275 246 201 20
281 247 230 291 327 135 202 195 197 268 283 298 301 294 295 265 234 248 257 270 276 251 228 299 259 113 285 218 244 175 227 185 251 294 153 87 121 21 47 113 110 119 106 163 139 126 95 178 93 117 127 132 174 349 268 305 258 256 146 211 136 123 137 108 128 174 112 264 122 134 252 252 271 283 339 301 295 308 302 320 21 63 10 338 342 333 314 128
10 17 300 327 353 318 264 343 19 342 321 331 322 290 270 279 279 270 274 273 243 245 233 194 255 265 249 90 320 357 307 324 124 278 66 156 189 161 201 127 114 109 149 157 158 88 146 181 125 153 154 177 205 215 248 128 1 319 244 188 186 159 139 111 99 95 181 207 182 224 183 253 304 289 280 271 246 257 307 348 47 50 327 298 302 281 245 258
310 70 348 334 325 25 4 340 3 5 328 325 304 296 293 274 291 299 281 302 310 264 201 191 228 309 299 312 211 265 245 260 277 214 185 165 215 171 177 137 127 146 152 148 132 80 73 42 266 149 177 193 194 211 235 234 236 256 236 211 190 152 155 137 146 203 173 106 255 263 194 172 250 259 256 250 266 291 284 250 221 204 198 226 248 281 300 304
35 287 30 61 195 298 5 336 342 319 310 327 277 288 272 276 291 295 311 271 292 269 233 346 231 215 171 224 282 291 315 269 219 204 274 50 70 150 86 357 146 179 137 141 103 112 140 142 264 142 270 232 208 217 235 277 267 267 301 204 182 173 166 160 205 180 143 154 198 232 169 186 241 224 231 219 211 221 228 230 212 225 252 263 324 309 309 309
230 307 311 18 349 316 263 277 302 305 304 312 284 284 296 288 286 265 260 308 307 306 200 233 252 259 251 197 166 216 172 6 288 274 153 205 144 153 73 33 327 231 105 111 71 153 93 222 226 184 204 307 306 326 352 339 318 324 316 228 181 170 185 186 185 167 168 191 205 168 174 196 241 270 180 184 179 187 224 255 280 185 244 239 176 262 305 297
8 7 316 340 229 284 283 311 317 317 313 314 322 280 285 312 341 344 330 318 324 314 300 14 345 351 331 297 125 265 232 190 195 265 223 147 308 118 199 185 184 317 84 144 173 247 102 260 190 151 179 299 304 327 340 359 355 342 324 271 192 192 192 225 132 169 185 38 67 132 148 215 298 283 179 211 194 196 341 276 234 222 225 171 159 166 273 286
296 315 316 334 329 265 276 324 329 322 314 311 314 319 315 354 334 333 316 278 272 296 30 43 340 357 3 347 57 11 335 36 50 293 260 226 250 223 140 268 151 172 146 137 71 295 87 224 55 70 61 323 307 351 332 354 3 41 343 351 30 151 135 245 112 172 125 197 121 110 130 232 232 223 189 163 170 204 226 238 244 246 277 90 117 253 278 272
296 294 310 161 240 297 323 309 301 348 289 310 344 326 318 318 314 345 343 315 347 336 229 90 55 46 3 33 30 332 302 327 142 222 232 219 173 241 211 168 167 168 180 156 170 145 158 132 97 82 85 232 264 116 40 14 29 7 319 254 60 61 91 66 38 27 146 142 119 148 221 214 178 190 144 222 215 237 250 255 312 345 317 289 249 228 267 282